Hourly Data Report for January 17, 2022

CLYDE RIVER A
NUNAVUT
Current Station Operator: NAVCAN

70°29'09.000" N
68°31'01.000" W
26.50 m
2400804
71090
YCY

Download Data

Hourly Data (January 2022)
Hourly Data Report for January 17, 2022
TIME
LST
Temp Definition
°C
Dew Point Definition
°C
Rel Hum Definition
%
Precip. Amount Definition
mm

Wind Dir Definition
10's deg

Wind Spd Definition
km/h
Visibility Definition
km
Stn Press Definition
kPa
Hmdx Definition


Wind Chill Definition


Weather Definition


00:00 -26.1 -29.8 72 0.0 25 13 16.1 99.48   -36 LegendNANA
01:00 -27.6 -31.3 71 0.0 26 13 16.1 99.44   -38 LegendNANA
02:00 -28.0 -31.2 75 0.0 25 17 16.1 99.45   -40 LegendNANA
03:00 -28.0 -31.3 74 0.0 25 24 16.1 99.44   -42 LegendNANA
04:00 -29.0 -32.0 76 0.0 24 17 16.1 99.41   -41 LegendNANA
05:00 -28.3 -31.7 74 0.0 25 18 16.1 99.42   -40 LegendNANA
06:00 -29.6 -32.6 76 0.0 LegendMM 4 16.1 99.40   -34 LegendNANA
07:00 -29.4 -32.7 74 0.0 25 15 16.1 99.39   -41 LegendNANA
08:00 -27.5 -30.9 74 0.0 26 17 16.1 99.37   -39 LegendNANA
09:00 -27.9 -31.2 74 0.0 26 17 16.1 99.38   -40 LegendNANA
10:00 -29.4 -32.6 75 0.0 24 8 16.1 99.39   -37 LegendNANA
11:00 -30.0 -33.1 75 0.0 25 13 16.1 99.40   -41 LegendNANA
12:00 -30.6 -33.8 74 0.0 25 13 4.8 99.46   -41 Haze
13:00 -29.9 -33.0 75 0.0 25 11 16.1 99.42   -40 LegendNANA
14:00 -30.7 -33.7 76 0.0 24 13 16.1 99.52   -41 LegendNANA
15:00 -30.3 -33.5 74 0.0 24 15 16.1 99.51   -42 LegendNANA
16:00 -28.7 -31.9 75 0.0 25 18 16.1 99.55   -41 LegendNANA
17:00 -28.2 -31.6 73 0.0 25 13 16.1 99.57   -38 LegendNANA
18:00 -26.8 -30.6 71 0.0 28 8 16.1 99.63   -34 LegendNANA
19:00 -26.0 -30.1 69 0.0 LegendMM 8 16.1 99.70   -33 LegendNANA
20:00 -30.8 -34.4 71 0.0 31 11 16.1 99.78   -41 LegendNANA
21:00 -30.8 -34.2 73 0.0 23 5 16.1 99.84   -37 LegendNANA
22:00 -32.4 -35.8 73 0.0   0 16.1 99.86     LegendNANA
23:00 -30.2 -33.7 72 0.0 30 9 16.1 99.89   -39 LegendNANA

Notes on Data Quality.

Legend

  • E = Estimated
  • M = Missing
  • NA = Not Available*
  • [empty] = Indicates an unobserved value
Date modified: